sat.trackr.live / text

‹ back to catalog

STARLINK-4269

NORAD 52992 · 2022-076G

PAYLOAD ACTIVE UNKNOWN

§ Identity

Operator
Country
US
Launch date
2022-07-07
Launch site
AFETR
Launch vehicle
Mass (kg)
RCS (m²)

Purposes: comms

External: N2YO · Heavens-Above · Gunter

§ Orbital elements

Epoch: 2026-09-19T18:28:33.588480Z

Period
94.01 min
Inclination
53.1590°
Eccentricity
0.0001199
Mean motion
15.31698135 rev/d
Perigee alt
469.9 km
Apogee alt
471.6 km
Semi-major
6,848.9 km
B*
2.5821e-6
RAAN
301.1696°
Arg perigee
85.6238°
Mean anomaly
274.4900°
Rev number
23,216

§ Raw data

STARLINK-42691 52992U 22076G   26262.76983320 -.00000285  00000+0  25821-5 0  99982 52992  53.1590 301.1696 0001199  85.6238 274.4900 15.31698135232162

JSON: /api/v1/satellites/52992 · /tle

For live sub-satellite position, see the globe view (requires WebGL).

§ Visibility from observer

Set your observer location to see the next 7 days of passes ≥ 10°. The values pass through the URL so the page stays shareable.

No JS? Fill the form by hand. The geolocation button needs JavaScript.